Hourly Data Report for January 31, 2003

SHERBROOKE A
QUEBEC

45°26'00.000" N
71°41'00.000" W
241.40 m
7028124
71610
YSC

Download Data

Hourly Data (January 2003)
Hourly Data Report for January 31, 2003
TIME
LST
Temp Definition
°C
Dew Point Definition
°C
Rel Hum Definition
%
Precip. Amount Definition
mm

Wind Dir Definition
10's deg

Wind Spd Definition
km/h
Visibility Definition
km
Stn Press Definition
kPa
Hmdx Definition


Wind Chill Definition


Weather Definition


00:00 -17.3 -20.1 79   9 7 15.0 99.98   -23  
01:00 -18.3 -21.0 79   9 7 15.0 99.95   -24  
02:00 -17.6 -20.2 80   8 7 15.0 99.96   -23  
03:00 -18.4 -21.0 80   8 6 15.0 99.96   -23  
04:00 -19.4 -22.1 79   7 4 15.0 99.96   -23  
05:00 -18.7 -21.1 81   8 9 15.0 99.95   -25  
06:00 -19.2 -22.0 78   8 4 15.0 99.90   -23  
07:00 -19.8 -24.2 68   7 7 15.0 99.88   -25  
08:00 -16.7 -20.4 73   5 4 24.1 99.90   -20 Mainly Clear
09:00 -16.2 -20.7 68     0 24.1 99.94     Clear
10:00 -9.7 -14.2 70     0 24.1 99.90     Mainly Clear
11:00 -6.3 -13.3 58   27 4 24.1 99.85   -8 Mainly Clear
12:00 -2.0 -11.1 50     0 24.1 99.71     Mainly Clear
13:00 -0.1 -11.1 43     0 24.1 99.62     Mainly Clear
14:00 -0.1 -10.6 45     0 24.1 99.52     Mainly Clear
15:00 1.6 -10.3 41   27 4 24.1 99.46     Mainly Clear
16:00 1.1 -10.3 42     0 24.1 99.36     Mainly Clear
17:00 -3.4 -11.2 55   26 4 24.1 99.35   -5 Mainly Clear
18:00 -5.9 -11.4 65     0 15.0 99.34      
19:00
20:00
21:00 -5.4 -10.2 69     0 15.0 99.33      
22:00 -5.1 -10.1 68     0 15.0 99.25      
23:00 -3.5 -9.1 65   10 6 15.0 99.18   -6  

Notes on Data Quality.

Legend

  • E = Estimated
  • M = Missing
  • NA = Not Available*
  • [empty] = Indicates an unobserved value
Date modified: